Location: Brabourne
(51.1333°N, 1.0000°E)
Time: 06:00:41
(UTC+00:00)

NOSS 3-1 (A) - Pass Details

Date: 23 October 2021
Orbit: 721 x 1491 km, 63.4° (Epoch: 22 November)

Event Time Altitude Azimuth Distance (km) Brightness Sun altitude
Exits shadow 04:42:45 25° 254° (WSW) 2,406 4.9 -17.9°
Maximum altitude 04:43:20 25° 248° (WSW) 2,411 5.0 -17.8°
Drops below altitude 10° 04:49:57 10° 198° (SSW) 3,528 6.2 -16.8°
Sets 04:53:38 0° 187° (S) 4,563 6.9 -16.2°
